This is the latest recevied weather packets stored in our database for station/object NorthRyde. If no packets are shown the sender has not sent any weather packets the latest 10 day(s).
| Time | Temp. | Humidity | Pressure | Rain* | Wind** | Luminosity | Snow |
|---|---|---|---|---|---|---|---|
| 1777684628 | 23.89° C | 71% | 1026.4 hPa | 0 mm | - | 42 W/m² | - |
| 1777684562 | 23.89° C | 71% | 1026.3 hPa | 0 mm | - | 42 W/m² | - |
| 1777684495 | 23.89° C | 71% | 1026.3 hPa | 0 mm | - | 49 W/m² | - |
| 1777684429 | 23.89° C | 71% | 1026.4 hPa | 0 mm | - | 60 W/m² | - |
| 1777684369 | 23.89° C | 71% | 1026.2 hPa | 0 mm | - | 93 W/m² | - |
| 1777684307 | 23.89° C | 71% | 1026.2 hPa | 0 mm | - | 111 W/m² | - |
| 1777684248 | 23.89° C | 72% | 1026.2 hPa | 0 mm | - | 130 W/m² | - |
| 1777684187 | 23.89° C | 72% | 1026.2 hPa | 0 mm | - | 153 W/m² | - |
| 1777684121 | 23.89° C | 71% | 1026.2 hPa | 0 mm | - | 638 W/m² | - |
| 1777684059 | 23.89° C | 71% | 1026.2 hPa | 0 mm | - | 638 W/m² | - |
| 1777684000 | 23.89° C | 71% | 1026.1 hPa | 0 mm | - | 638 W/m² | - |
| 1777683939 | 23.89° C | 70% | 1026.2 hPa | 0 mm | - | 638 W/m² | - |
| 1777683879 | 23.89° C | 70% | 1026.2 hPa | 0 mm | - | 638 W/m² | - |
| 1777683818 | 23.89° C | 71% | 1026.3 hPa | 0 mm | - | 638 W/m² | - |
| 1777683758 | 23.89° C | 71% | 1026.5 hPa | 0 mm | - | 638 W/m² | - |
| 1777683697 | 23.89° C | 72% | 1026.3 hPa | 0 mm | - | 638 W/m² | - |
| 1777683660 | 23.89° C | 72% | 1026.4 hPa | 0 mm | - | 638 W/m² | - |
| 1777683626 | 23.89° C | 72% | 1026.3 hPa | 0 mm | - | 640 W/m² | - |
| 1777683594 | 23.89° C | 72% | 1026.3 hPa | 0 mm | - | 619 W/m² | - |
| 1777683576 | 23.89° C | 72% | 1026.4 hPa | 0 mm | - | 654 W/m² | - |
| 1777683398 | 23.89° C | 72% | 1026.4 hPa | 0 mm | - | 213 W/m² | - |
| 1777683338 | 23.89° C | 72% | 1026.3 hPa | 0 mm | - | 213 W/m² | - |
| 1777683279 | 23.89° C | 73% | 1026.4 hPa | 0 mm | - | 619 W/m² | - |
| 1777683218 | 23.89° C | 73% | 1026.4 hPa | 0 mm | - | 619 W/m² | - |
| 1777683157 | 23.33° C | 72% | 1026.3 hPa | 0 mm | - | 619 W/m² | - |
* Rain latest hour (hover to see other rain measurements)
** Current wind speed in m/s (hover to see current wind gust speed)